TimeMDT,TemperatureF,Dew PointF,Humidity,Sea Level PressureIn,VisibilityMPH,Wind Direction,Wind SpeedMPH,Gust SpeedMPH,PrecipitationIn,Events,Conditions,WindDirDegrees,DateUTC
12:53 AM,6.1,-2.0,69,30.17,10.0,SSW,8.1,-,N/A,,Mostly Cloudy,200,2013-03-24 06:53:00
1:53 AM,3.0,-4.0,73,30.18,10.0,South,9.2,-,N/A,,Partly Cloudy,180,2013-03-24 07:53:00
2:53 AM,1.9,-5.1,72,30.19,10.0,SSW,6.9,-,N/A,,Partly Cloudy,210,2013-03-24 08:53:00
3:53 AM,3.0,-7.1,63,30.16,10.0,SSW,9.2,-,N/A,,Partly Cloudy,210,2013-03-24 09:53:00
4:53 AM,1.0,-7.1,69,30.15,10.0,SSW,8.1,-,N/A,,Clear,200,2013-03-24 10:53:00
5:53 AM,3.0,-6.0,66,30.18,10.0,SSW,4.6,-,N/A,,Overcast,200,2013-03-24 11:53:00
6:53 AM,3.9,-4.0,70,30.17,4.0,SW,4.6,-,N/A,,Overcast,220,2013-03-24 12:53:00
7:48 AM,6.8,-2.2,67,30.01,4.0,Calm,Calm,-,N/A,,Haze,0,2013-03-24 13:48:00
7:53 AM,6.1,-2.9,67,30.16,4.0,Calm,Calm,-,N/A,,Haze,0,2013-03-24 13:53:00
8:35 AM,8.6,1.4,73,30.01,2.0,Calm,Calm,-,N/A,,Haze,0,2013-03-24 14:35:00
8:53 AM,8.1,3.0,80,30.17,1.5,Calm,Calm,-,N/A,,Haze,0,2013-03-24 14:53:00
9:53 AM,12.9,5.0,71,30.15,7.0,Calm,Calm,-,0.00,,Scattered Clouds,0,2013-03-24 15:53:00
10:53 AM,16.0,5.0,62,30.14,7.0,North,6.9,-,N/A,,Mostly Cloudy,360,2013-03-24 16:53:00
11:04 AM,15.8,5.0,62,30.00,6.0,Variable,3.5,-,0.00,Snow,Light Snow,0,2013-03-24 17:04:00
11:53 AM,17.1,5.0,59,30.16,6.0,NW,11.5,-,0.00,,Haze,310,2013-03-24 17:53:00
12:53 PM,19.9,3.0,48,30.11,10.0,NNW,13.8,21.9,0.00,,Mostly Cloudy,330,2013-03-24 18:53:00
1:53 PM,19.9,1.9,46,30.10,8.0,NNW,13.8,23.0,0.00,,Overcast,330,2013-03-24 19:53:00
2:19 PM,19.4,8.6,63,29.96,1.5,North,19.6,26.5,0.00,,Overcast,360,2013-03-24 20:19:00
2:25 PM,19.4,12.2,74,29.96,6.0,North,15.0,26.5,0.00,Snow,Light Snow,350,2013-03-24 20:25:00
2:53 PM,21.0,6.1,53,30.09,10.0,North,13.8,23.0,0.00,,Mostly Cloudy,350,2013-03-24 20:53:00
3:45 PM,19.4,8.6,63,29.96,6.0,NW,19.6,29.9,0.00,Snow,Light Snow,320,2013-03-24 21:45:00
3:53 PM,21.0,8.1,57,30.11,8.0,NNW,11.5,23.0,0.00,Snow,Light Snow,340,2013-03-24 21:53:00
4:53 PM,19.9,-0.0,42,30.14,8.0,NNW,16.1,24.2,0.00,,Overcast,330,2013-03-24 22:53:00
5:53 PM,18.0,3.0,52,30.17,10.0,NW,13.8,21.9,N/A,,Mostly Cloudy,320,2013-03-24 23:53:00
6:53 PM,17.1,6.1,62,30.19,10.0,North,4.6,-,0.00,,Scattered Clouds,350,2013-03-25 00:53:00
7:53 PM,16.0,-0.9,47,30.21,10.0,NNW,4.6,-,N/A,,Partly Cloudy,330,2013-03-25 01:53:00
8:53 PM,8.1,-2.9,61,30.27,10.0,SSW,6.9,-,N/A,,Clear,200,2013-03-25 02:53:00
9:53 PM,5.0,-4.0,66,30.27,10.0,SSW,9.2,-,N/A,,Clear,210,2013-03-25 03:53:00
10:53 PM,6.1,-4.0,63,30.26,10.0,SSW,9.2,-,N/A,,Clear,210,2013-03-25 04:53:00
11:53 PM,3.0,-6.0,66,30.29,10.0,SSW,6.9,-,N/A,,Clear,200,2013-03-25 05:53:00